Time,TemperatureF,DewpointF,PressureIn,WindDirection,WindDirectionDegrees,WindSpeedMPH,WindSpeedGustMPH,Humidity,HourlyPrecipIn,Conditions,Clouds,dailyrainin,SoftwareType,DateUTC
2013-05-29 00:01:00,52.0,32.9,30.33,West,272,0.0,0.0,48,0.00,CLR,CLR,0.00,WeatherDisplay:10.34,2013-05-29 04:01:00,
2013-05-29 00:03:00,51.8,32.7,30.33,West,272,0.0,0.0,48,0.00,CLR,CLR,0.00,WeatherDisplay:10.34,2013-05-29 04:03:00,
2013-05-29 00:05:00,51.8,32.7,30.33,West,272,0.0,0.0,48,0.00,CLR,CLR,0.00,WeatherDisplay:10.34,2013-05-29 04:05:00,
2013-05-29 00:10:00,51.6,32.6,30.33,West,272,0.0,0.0,48,0.00,CLR,CLR,0.00,WeatherDisplay:10.34,2013-05-29 04:10:00,
2013-05-29 00:11:00,51.6,32.6,30.33,West,272,0.0,0.0,48,0.00,CLR,CLR,0.00,WeatherDisplay:10.34,2013-05-29 04:11:00,
2013-05-29 00:15:00,51.6,32.6,30.33,West,272,0.0,0.0,48,0.00,CLR,CLR,0.00,WeatherDisplay:10.34,2013-05-29 04:15:00,
2013-05-29 00:20:00,51.6,32.6,30.33,West,272,0.0,0.0,48,0.00,CLR,CLR,0.00,WeatherDisplay:10.34,2013-05-29 04:20:00,
2013-05-29 00:25:00,51.4,32.4,30.33,West,272,0.0,0.0,48,0.00,CLR,CLR,0.00,WeatherDisplay:10.34,2013-05-29 04:25:00,
2013-05-29 00:30:00,51.4,32.4,30.33,West,272,0.0,0.0,48,0.00,CLR,CLR,0.00,WeatherDisplay:10.34,2013-05-29 04:30:00,
2013-05-29 00:35:00,51.3,32.2,30.33,West,272,0.0,0.0,48,0.00,CLR,CLR,0.00,WeatherDisplay:10.34,2013-05-29 04:35:00,
2013-05-29 00:40:00,51.3,32.2,30.33,West,272,0.0,0.0,48,0.00,CLR,CLR,0.00,WeatherDisplay:10.34,2013-05-29 04:40:00,
2013-05-29 00:45:00,51.1,32.1,30.33,West,272,0.0,0.0,48,0.00,CLR,CLR,0.00,WeatherDisplay:10.34,2013-05-29 04:45:00,
2013-05-29 00:50:00,50.9,31.9,30.33,West,272,0.0,0.0,48,0.00,CLR,CLR,0.00,WeatherDisplay:10.34,2013-05-29 04:50:00,
2013-05-29 00:55:00,50.9,31.9,30.33,West,272,0.0,0.0,48,0.00,CLR,CLR,0.00,WeatherDisplay:10.34,2013-05-29 04:55:00,
2013-05-29 01:00:00,50.7,32.2,30.33,West,272,0.0,0.0,49,0.00,CLR,CLR,0.00,WeatherDisplay:10.34,2013-05-29 05:00:00,
2013-05-29 01:05:00,50.9,32.4,30.33,West,272,0.0,0.0,49,0.00,CLR,CLR,0.00,WeatherDisplay:10.34,2013-05-29 05:05:00,
2013-05-29 01:10:00,50.7,32.2,30.33,West,272,0.0,0.0,49,0.00,CLR,CLR,0.00,WeatherDisplay:10.34,2013-05-29 05:10:00,
2013-05-29 01:15:00,50.7,32.2,30.33,West,272,0.0,0.0,49,0.00,CLR,CLR,0.00,WeatherDisplay:10.34,2013-05-29 05:15:00,
2013-05-29 01:20:00,50.7,32.2,30.33,West,272,0.0,0.0,49,0.00,CLR,CLR,0.00,WeatherDisplay:10.34,2013-05-29 05:20:00,
2013-05-29 01:25:00,50.7,32.2,30.33,West,272,0.0,0.0,49,0.00,CLR,CLR,0.00,WeatherDisplay:10.34,2013-05-29 05:25:00,
2013-05-29 01:30:00,50.7,32.2,30.33,West,272,0.0,0.0,49,0.00,CLR,CLR,0.00,WeatherDisplay:10.34,2013-05-29 05:30:00,
2013-05-29 01:35:00,50.7,32.7,30.33,West,272,0.0,0.0,50,0.00,CLR,CLR,0.00,WeatherDisplay:10.34,2013-05-29 05:35:00,
2013-05-29 01:40:00,50.7,32.7,30.33,West,272,0.0,0.0,50,0.00,CLR,CLR,0.00,WeatherDisplay:10.34,2013-05-29 05:40:00,
2013-05-29 01:45:00,50.9,32.9,30.33,West,272,0.0,0.0,50,0.00,CLR,CLR,0.00,WeatherDisplay:10.34,2013-05-29 05:45:00,
2013-05-29 01:50:00,50.7,32.7,30.33,West,272,0.0,0.0,50,0.00,CLR,CLR,0.00,WeatherDisplay:10.34,2013-05-29 05:50:00,
2013-05-29 01:55:00,50.9,32.9,30.33,West,272,0.0,0.0,50,0.00,CLR,CLR,0.00,WeatherDisplay:10.34,2013-05-29 05:55:00,
2013-05-29 02:00:00,50.9,32.9,30.33,West,272,0.0,0.0,50,0.00,CLR,CLR,0.00,WeatherDisplay:10.34,2013-05-29 06:00:00,
2013-05-29 02:05:00,50.9,32.9,30.33,West,272,0.0,0.0,50,0.00,SCT,SCT,0.00,WeatherDisplay:10.34,2013-05-29 06:05:00,
2013-05-29 02:10:00,50.7,32.7,30.33,West,272,0.0,0.0,50,0.00,SCT,SCT,0.00,WeatherDisplay:10.34,2013-05-29 06:10:00,
2013-05-29 02:15:00,50.7,32.7,30.33,West,272,0.0,0.0,50,0.00,SCT,SCT,0.00,WeatherDisplay:10.34,2013-05-29 06:15:00,
2013-05-29 02:20:00,50.7,32.7,30.33,West,272,0.0,0.0,50,0.00,SCT,SCT,0.00,WeatherDisplay:10.34,2013-05-29 06:20:00,
2013-05-29 02:25:00,50.7,32.7,30.33,West,272,0.0,0.0,50,0.00,SCT,SCT,0.00,WeatherDisplay:10.34,2013-05-29 06:25:00,
2013-05-29 02:30:00,50.7,33.2,30.33,West,272,0.0,0.0,51,0.00,SCT,SCT,0.00,WeatherDisplay:10.34,2013-05-29 06:30:00,
2013-05-29 02:35:00,50.7,33.2,30.33,West,272,0.0,0.0,51,0.00,SCT,SCT,0.00,WeatherDisplay:10.34,2013-05-29 06:35:00,
2013-05-29 02:40:00,50.9,33.4,30.33,West,272,0.0,0.0,51,0.00,SCT,SCT,0.00,WeatherDisplay:10.34,2013-05-29 06:40:00,
2013-05-29 02:45:00,50.9,33.4,30.33,West,272,0.0,0.0,51,0.00,SCT,SCT,0.00,WeatherDisplay:10.34,2013-05-29 06:45:00,
2013-05-29 02:50:00,50.9,33.4,30.30,West,272,0.0,0.0,51,0.00,SCT,SCT,0.00,WeatherDisplay:10.34,2013-05-29 06:50:00,
2013-05-29 02:55:00,50.9,33.4,30.30,West,272,0.0,0.0,51,0.00,SCT,SCT,0.00,WeatherDisplay:10.34,2013-05-29 06:55:00,
2013-05-29 03:00:00,50.9,33.4,30.30,West,272,0.0,0.0,51,0.00,SCT,SCT,0.00,WeatherDisplay:10.34,2013-05-29 07:00:00,
2013-05-29 03:05:00,50.7,33.2,30.30,West,272,0.0,0.0,51,0.00,BKN,BKN,0.00,WeatherDisplay:10.34,2013-05-29 07:05:00,
2013-05-29 03:10:00,50.7,33.2,30.30,West,272,0.0,0.0,51,0.00,BKN,BKN,0.00,WeatherDisplay:10.34,2013-05-29 07:10:00,
2013-05-29 03:15:00,50.7,33.7,30.30,West,272,0.0,0.0,52,0.00,BKN,BKN,0.00,WeatherDisplay:10.34,2013-05-29 07:15:00,
2013-05-29 03:20:00,50.7,33.7,30.30,West,272,0.0,0.0,52,0.00,BKN,BKN,0.00,WeatherDisplay:10.34,2013-05-29 07:20:00,
2013-05-29 03:25:00,50.7,33.7,30.30,West,272,0.0,0.0,52,0.00,BKN,BKN,0.00,WeatherDisplay:10.34,2013-05-29 07:25:00,
2013-05-29 03:30:00,50.4,33.4,30.30,West,272,0.0,0.0,52,0.00,BKN,BKN,0.00,WeatherDisplay:10.34,2013-05-29 07:30:00,
2013-05-29 03:35:00,50.4,33.9,30.30,West,272,0.0,0.0,53,0.00,BKN,BKN,0.00,WeatherDisplay:10.34,2013-05-29 07:35:00,
2013-05-29 03:40:00,50.5,34.0,30.30,West,272,0.0,0.0,53,0.00,BKN,BKN,0.00,WeatherDisplay:10.34,2013-05-29 07:40:00,
2013-05-29 03:45:00,50.5,34.0,30.30,West,272,0.0,0.0,53,0.00,BKN,BKN,0.00,WeatherDisplay:10.34,2013-05-29 07:45:00,
2013-05-29 03:50:00,50.4,33.9,30.30,West,272,0.0,0.0,53,0.00,BKN,BKN,0.00,WeatherDisplay:10.34,2013-05-29 07:50:00,
2013-05-29 03:55:00,50.4,34.3,30.30,West,272,0.0,0.0,54,0.00,BKN,BKN,0.00,WeatherDisplay:10.34,2013-05-29 07:55:00,
2013-05-29 04:00:00,50.2,34.2,30.30,West,272,0.0,0.0,54,0.00,BKN,BKN,0.00,WeatherDisplay:10.34,2013-05-29 08:00:00,
2013-05-29 04:05:00,50.2,34.2,30.30,West,272,0.0,0.0,54,0.00,OVC,OVC,0.00,WeatherDisplay:10.34,2013-05-29 08:05:00,
2013-05-29 04:10:00,50.2,34.2,30.30,West,272,0.0,0.0,54,0.00,OVC,OVC,0.00,WeatherDisplay:10.34,2013-05-29 08:10:00,
2013-05-29 04:15:00,50.2,34.2,30.30,West,272,0.0,0.0,54,0.00,OVC,OVC,0.00,WeatherDisplay:10.34,2013-05-29 08:15:00,
2013-05-29 04:20:00,50.4,34.3,30.30,West,272,0.0,0.0,54,0.00,OVC,OVC,0.00,WeatherDisplay:10.34,2013-05-29 08:20:00,
2013-05-29 04:25:00,50.4,34.3,30.30,West,272,0.0,0.0,54,0.00,OVC,OVC,0.00,WeatherDisplay:10.34,2013-05-29 08:25:00,
2013-05-29 04:30:00,50.4,34.8,30.30,West,272,0.0,0.0,55,0.00,OVC,OVC,0.00,WeatherDisplay:10.34,2013-05-29 08:30:00,
2013-05-29 04:35:00,50.4,35.2,30.30,West,272,0.0,0.0,56,0.00,OVC,OVC,0.00,WeatherDisplay:10.34,2013-05-29 08:35:00,
2013-05-29 04:40:00,50.5,35.4,30.30,West,272,0.0,0.0,56,0.00,OVC,OVC,0.00,WeatherDisplay:10.34,2013-05-29 08:40:00,
2013-05-29 04:45:00,50.5,35.4,30.30,West,272,0.0,0.0,56,0.00,OVC,OVC,0.00,WeatherDisplay:10.34,2013-05-29 08:45:00,
2013-05-29 04:50:00,50.4,35.2,30.30,West,272,0.0,0.0,56,0.00,OVC,OVC,0.00,WeatherDisplay:10.34,2013-05-29 08:50:00,
2013-05-29 04:55:00,50.4,35.7,30.30,West,272,0.0,0.0,57,0.00,OVC,OVC,0.00,WeatherDisplay:10.34,2013-05-29 08:55:00,
2013-05-29 05:00:00,50.2,35.5,30.30,West,272,0.0,0.0,57,0.00,OVC,OVC,0.00,WeatherDisplay:10.34,2013-05-29 09:00:00,
2013-05-29 05:05:00,50.2,36.4,30.30,West,272,0.0,0.0,59,0.00,OVC,OVC,0.00,WeatherDisplay:10.34,2013-05-29 09:05:00,
2013-05-29 05:10:00,49.8,36.1,30.30,West,272,0.0,0.0,59,0.00,OVC,OVC,0.00,WeatherDisplay:10.34,2013-05-29 09:10:00,
2013-05-29 05:15:00,49.6,36.7,30.30,West,272,0.0,0.0,61,0.00,OVC,OVC,0.00,WeatherDisplay:10.34,2013-05-29 09:15:00,
2013-05-29 05:20:00,49.6,37.1,30.30,West,272,0.0,0.0,62,0.00,OVC,OVC,0.00,WeatherDisplay:10.34,2013-05-29 09:20:00,
2013-05-29 05:25:00,49.5,37.4,30.30,West,272,0.0,0.0,63,0.00,OVC,OVC,0.00,WeatherDisplay:10.34,2013-05-29 09:25:00,
2013-05-29 05:30:00,49.5,37.8,30.30,West,272,0.0,0.0,64,0.00,OVC,OVC,0.00,WeatherDisplay:10.34,2013-05-29 09:30:00,
2013-05-29 05:35:00,49.5,37.8,30.30,West,272,0.0,0.0,64,0.00,OVC,OVC,0.00,WeatherDisplay:10.34,2013-05-29 09:35:00,
2013-05-29 05:40:00,49.5,37.8,30.30,West,272,0.0,0.0,64,0.00,OVC,OVC,0.00,WeatherDisplay:10.34,2013-05-29 09:40:00,
2013-05-29 05:45:00,49.3,38.0,30.30,West,272,0.0,0.0,65,0.00,OVC,OVC,0.00,WeatherDisplay:10.34,2013-05-29 09:45:00,
2013-05-29 05:50:00,49.3,38.0,30.30,West,272,0.0,0.0,65,0.00,OVC,OVC,0.00,WeatherDisplay:10.34,2013-05-29 09:50:00,
2013-05-29 05:55:00,49.3,38.4,30.30,West,272,0.0,0.0,66,0.00,OVC,OVC,0.00,WeatherDisplay:10.34,2013-05-29 09:55:00,
2013-05-29 06:01:00,49.1,38.6,30.30,West,272,0.0,0.0,67,0.00,OVC,OVC,0.00,WeatherDisplay:10.34,2013-05-29 10:01:00,
2013-05-29 06:06:00,49.1,39.4,30.30,West,272,0.0,0.0,69,0.00,OVC,OVC,0.00,WeatherDisplay:10.34,2013-05-29 10:06:00,
2013-05-29 06:11:00,49.1,40.1,30.30,West,272,0.0,0.0,71,0.00,OVC,OVC,0.00,WeatherDisplay:10.34,2013-05-29 10:11:00,
2013-05-29 06:16:00,48.9,40.3,30.30,West,272,0.0,0.0,72,0.00,OVC,OVC,0.00,WeatherDisplay:10.34,2013-05-29 10:16:00,
2013-05-29 06:22:00,48.7,40.5,30.31,West,272,0.0,0.0,73,0.00,OVC,OVC,0.00,WeatherDisplay:10.34,2013-05-29 10:22:00,
2013-05-29 06:27:00,48.7,40.8,30.31,West,272,0.0,0.0,74,0.00,OVC,OVC,0.00,WeatherDisplay:10.34,2013-05-29 10:27:00,
2013-05-29 06:32:00,48.7,41.2,30.31,West,272,0.0,0.0,75,0.00,OVC,OVC,0.00,WeatherDisplay:10.34,2013-05-29 10:32:00,
2013-05-29 06:37:00,48.7,41.2,30.31,West,272,0.0,0.0,75,0.00,OVC,OVC,0.00,WeatherDisplay:10.34,2013-05-29 10:37:00,
2013-05-29 06:42:00,48.7,41.5,30.31,West,272,0.0,0.0,76,0.00,OVC,OVC,0.00,WeatherDisplay:10.34,2013-05-29 10:42:00,
2013-05-29 06:47:00,48.7,41.5,30.31,West,272,0.0,0.0,76,0.00,OVC,OVC,0.00,WeatherDisplay:10.34,2013-05-29 10:47:00,
2013-05-29 06:52:00,48.7,41.8,30.31,West,272,0.0,0.0,77,0.00,OVC,OVC,0.00,WeatherDisplay:10.34,2013-05-29 10:52:00,
2013-05-29 06:57:00,48.7,42.2,30.31,West,272,0.0,0.0,78,0.00,OVC,OVC,0.00,WeatherDisplay:10.34,2013-05-29 10:57:00,
2013-05-29 07:02:00,48.7,42.5,30.31,West,272,0.0,0.0,79,0.00,OVC,OVC,0.00,WeatherDisplay:10.34,2013-05-29 11:02:00,
2013-05-29 07:07:00,48.7,42.8,30.31,West,272,0.0,0.0,80,0.00,OVC,OVC,0.00,WeatherDisplay:10.34,2013-05-29 11:07:00,
2013-05-29 07:12:00,48.7,42.8,30.31,West,272,0.0,0.0,80,0.00,OVC,OVC,0.00,WeatherDisplay:10.34,2013-05-29 11:12:00,
2013-05-29 07:17:00,48.7,43.2,30.31,West,272,0.0,0.0,81,0.00,OVC,OVC,0.00,WeatherDisplay:10.34,2013-05-29 11:17:00,
2013-05-29 07:22:00,48.7,43.2,30.31,West,272,0.0,0.0,81,0.00,OVC,OVC,0.00,WeatherDisplay:10.34,2013-05-29 11:22:00,
2013-05-29 07:27:00,48.9,43.7,30.31,West,272,0.0,0.0,82,0.00,OVC,OVC,0.00,WeatherDisplay:10.34,2013-05-29 11:27:00,
2013-05-29 07:32:00,48.9,43.7,30.31,West,272,0.0,0.0,82,0.00,OVC,OVC,0.00,WeatherDisplay:10.34,2013-05-29 11:32:00,
2013-05-29 07:37:00,49.1,43.8,30.31,West,272,0.0,0.0,82,0.00,OVC,OVC,0.00,WeatherDisplay:10.34,2013-05-29 11:37:00,
2013-05-29 07:42:00,48.9,44.0,30.31,West,272,0.0,0.0,83,0.00,OVC,OVC,0.00,WeatherDisplay:10.34,2013-05-29 11:42:00,
2013-05-29 07:47:00,49.1,44.2,30.31,West,272,0.0,0.0,83,0.00,OVC,OVC,0.00,WeatherDisplay:10.34,2013-05-29 11:47:00,
2013-05-29 07:52:00,49.1,44.5,30.31,West,272,0.0,0.0,84,0.00,OVC,OVC,0.00,WeatherDisplay:10.34,2013-05-29 11:52:00,
2013-05-29 07:57:00,49.3,44.3,30.31,WNW,282,0.0,0.0,83,0.00,OVC,OVC,0.00,WeatherDisplay:10.34,2013-05-29 11:57:00,
2013-05-29 08:02:00,49.5,44.8,30.31,NW,317,0.0,0.0,84,0.00,OVC,OVC,0.00,WeatherDisplay:10.34,2013-05-29 12:02:00,
2013-05-29 08:07:00,49.3,44.6,30.31,NW,317,0.0,0.0,84,0.00,OVC,OVC,0.00,WeatherDisplay:10.34,2013-05-29 12:07:00,
2013-05-29 08:12:00,49.5,44.8,30.31,North,11,0.0,0.0,84,0.00,OVC,OVC,0.00,WeatherDisplay:10.34,2013-05-29 12:12:00,
2013-05-29 08:17:00,49.5,44.8,30.31,North,11,0.0,0.0,84,0.00,OVC,OVC,0.00,WeatherDisplay:10.34,2013-05-29 12:17:00,
2013-05-29 08:22:00,49.5,44.8,30.31,North,11,0.0,0.0,84,0.00,OVC,OVC,0.00,WeatherDisplay:10.34,2013-05-29 12:22:00,
2013-05-29 08:27:00,49.3,45.0,30.31,North,11,0.0,0.0,85,0.00,OVC,OVC,0.00,WeatherDisplay:10.34,2013-05-29 12:27:00,
2013-05-29 08:32:00,49.5,45.1,30.31,North,11,0.0,0.0,85,0.00,OVC,OVC,0.00,WeatherDisplay:10.34,2013-05-29 12:32:00,
2013-05-29 08:37:00,49.5,45.1,30.31,North,11,0.0,0.0,85,0.00,OVC,OVC,0.00,WeatherDisplay:10.34,2013-05-29 12:37:00,
2013-05-29 08:42:00,49.3,45.0,30.31,North,11,0.0,0.0,85,0.00,OVC,OVC,0.00,WeatherDisplay:10.34,2013-05-29 12:42:00,
2013-05-29 08:47:00,49.3,45.0,30.31,North,11,0.0,0.0,85,0.00,OVC,OVC,0.00,WeatherDisplay:10.34,2013-05-29 12:47:00,
2013-05-29 08:52:00,49.1,44.8,30.31,North,11,0.0,0.0,85,0.00,OVC,OVC,0.00,WeatherDisplay:10.34,2013-05-29 12:52:00,
2013-05-29 08:57:00,49.1,45.1,30.32,NNE,12,0.0,0.0,86,0.00,OVC,OVC,0.00,WeatherDisplay:10.34,2013-05-29 12:57:00,
2013-05-29 09:02:00,49.3,45.3,30.32,NNE,12,0.0,0.0,86,0.00,OVC,OVC,0.00,WeatherDisplay:10.34,2013-05-29 13:02:00,
2013-05-29 09:07:00,49.3,45.3,30.32,NNE,12,0.0,0.0,86,0.00,OVC,OVC,0.00,WeatherDisplay:10.34,2013-05-29 13:07:00,
2013-05-29 09:12:00,49.5,45.4,30.32,NNE,12,0.0,0.0,86,0.00,OVC,OVC,0.00,WeatherDisplay:10.34,2013-05-29 13:12:00,
2013-05-29 09:17:00,49.5,45.4,30.32,NNE,12,0.0,0.0,86,0.00,OVC,OVC,0.00,WeatherDisplay:10.34,2013-05-29 13:17:00,
2013-05-29 09:22:00,49.5,45.4,30.32,NNE,12,0.0,0.0,86,0.00,OVC,OVC,0.00,WeatherDisplay:10.34,2013-05-29 13:22:00,
2013-05-29 09:27:00,49.6,45.9,30.32,NNE,12,0.0,0.0,87,0.00,OVC,OVC,0.00,WeatherDisplay:10.34,2013-05-29 13:27:00,
2013-05-29 09:32:00,49.6,45.9,30.32,NNE,12,0.0,0.0,87,0.00,OVC,OVC,0.00,WeatherDisplay:10.34,2013-05-29 13:32:00,
2013-05-29 09:37:00,49.6,45.9,30.32,NNE,12,0.0,0.0,87,0.00,OVC,OVC,0.00,WeatherDisplay:10.34,2013-05-29 13:37:00,
2013-05-29 09:42:00,49.6,45.9,30.32,NNE,12,0.0,0.0,87,0.00,OVC,OVC,0.00,WeatherDisplay:10.34,2013-05-29 13:42:00,
2013-05-29 09:47:00,49.8,46.4,30.32,NNE,12,0.0,0.0,88,0.00,OVC,OVC,0.00,WeatherDisplay:10.34,2013-05-29 13:47:00,
2013-05-29 09:52:00,49.8,46.4,30.29,NNE,12,0.0,0.0,88,0.00,OVC,OVC,0.00,WeatherDisplay:10.34,2013-05-29 13:52:00,
2013-05-29 09:57:00,49.8,46.4,30.29,NNE,12,0.0,0.0,88,0.00,OVC,OVC,0.00,WeatherDisplay:10.34,2013-05-29 13:57:00,
2013-05-29 10:02:00,49.8,46.4,30.29,NNE,12,0.0,0.0,88,0.00,OVC,OVC,0.00,WeatherDisplay:10.34,2013-05-29 14:02:00,
2013-05-29 10:08:00,49.8,46.4,30.29,NNE,12,0.0,0.0,88,0.00,OVC,OVC,0.00,WeatherDisplay:10.34,2013-05-29 14:08:00,
2013-05-29 10:13:00,49.8,46.7,30.29,NNE,12,0.0,0.0,89,0.00,OVC,OVC,0.00,WeatherDisplay:10.34,2013-05-29 14:13:00,
2013-05-29 10:18:00,49.8,46.7,30.29,North,3,0.0,0.0,89,0.00,OVC,OVC,0.00,WeatherDisplay:10.34,2013-05-29 14:18:00,
2013-05-29 10:23:00,50.0,46.9,30.29,North,0,0.0,0.0,89,0.00,OVC,OVC,0.00,WeatherDisplay:10.34,2013-05-29 14:23:00,
2013-05-29 10:28:00,50.0,46.9,30.29,North,0,0.0,0.0,89,0.00,OVC,OVC,0.00,WeatherDisplay:10.34,2013-05-29 14:28:00,
2013-05-29 10:33:00,50.0,46.9,30.29,North,0,0.0,0.0,89,0.00,OVC,OVC,0.00,WeatherDisplay:10.34,2013-05-29 14:33:00,
2013-05-29 10:38:00,50.2,47.1,30.29,North,0,0.0,0.0,89,0.00,OVC,OVC,0.00,WeatherDisplay:10.34,2013-05-29 14:38:00,
2013-05-29 10:43:00,50.2,47.4,30.29,North,0,0.0,0.0,90,0.00,OVC,OVC,0.00,WeatherDisplay:10.34,2013-05-29 14:43:00,
2013-05-29 10:48:00,50.2,47.4,30.29,North,0,0.0,0.0,90,0.00,OVC,OVC,0.00,WeatherDisplay:10.34,2013-05-29 14:48:00,
2013-05-29 10:53:00,50.2,47.4,30.29,North,0,0.0,0.0,90,0.00,OVC,OVC,0.00,WeatherDisplay:10.34,2013-05-29 14:53:00,
2013-05-29 10:58:00,50.4,47.5,30.29,North,0,0.0,0.0,90,0.00,OVC,OVC,0.00,WeatherDisplay:10.34,2013-05-29 14:58:00,
2013-05-29 11:03:00,50.4,47.5,30.29,North,0,0.0,0.0,90,0.00,OVC,OVC,0.00,WeatherDisplay:10.34,2013-05-29 15:03:00,
2013-05-29 11:08:00,50.4,47.5,30.29,North,0,0.0,0.0,90,0.00,OVC,OVC,0.00,WeatherDisplay:10.34,2013-05-29 15:08:00,
2013-05-29 11:13:00,50.5,47.7,30.29,North,0,0.0,0.0,90,0.00,OVC,OVC,0.00,WeatherDisplay:10.34,2013-05-29 15:13:00,
2013-05-29 11:18:00,50.5,47.7,30.29,North,0,0.0,0.0,90,0.00,OVC,OVC,0.00,WeatherDisplay:10.34,2013-05-29 15:18:00,
2013-05-29 11:23:00,50.5,48.0,30.29,North,0,0.0,0.0,91,0.00,OVC,OVC,0.00,WeatherDisplay:10.34,2013-05-29 15:23:00,
2013-05-29 11:28:00,50.7,48.2,30.29,North,0,0.0,0.0,91,0.00,OVC,OVC,0.00,WeatherDisplay:10.34,2013-05-29 15:28:00,
2013-05-29 11:33:00,50.9,48.4,30.29,North,0,0.0,0.0,91,0.00,OVC,OVC,0.00,WeatherDisplay:10.34,2013-05-29 15:33:00,
2013-05-29 11:38:00,50.9,48.4,30.26,North,0,0.0,0.0,91,0.00,OVC,OVC,0.00,WeatherDisplay:10.34,2013-05-29 15:38:00,
2013-05-29 11:43:00,50.9,48.4,30.26,North,0,0.0,0.0,91,0.00,OVC,OVC,0.00,WeatherDisplay:10.34,2013-05-29 15:43:00,
2013-05-29 11:48:00,50.9,48.4,30.26,North,0,0.0,0.0,91,0.00,OVC,OVC,0.00,WeatherDisplay:10.34,2013-05-29 15:48:00,
2013-05-29 11:53:00,51.1,48.5,30.26,North,0,0.0,3.0,91,0.00,OVC,OVC,0.00,WeatherDisplay:10.34,2013-05-29 15:53:00,
2013-05-29 11:58:00,51.1,48.5,30.26,North,0,0.0,0.0,91,0.00,OVC,OVC,0.00,WeatherDisplay:10.34,2013-05-29 15:58:00,
2013-05-29 12:03:00,50.9,48.4,30.26,ESE,110,0.0,3.0,91,0.00,OVC,OVC,0.00,WeatherDisplay:10.34,2013-05-29 16:03:00,
2013-05-29 12:08:00,51.1,48.5,30.26,ESE,109,0.0,0.0,91,0.00,OVC,OVC,0.00,WeatherDisplay:10.34,2013-05-29 16:08:00,
2013-05-29 12:13:00,51.1,48.5,30.26,East,85,0.0,3.0,91,0.00,OVC,OVC,0.00,WeatherDisplay:10.34,2013-05-29 16:13:00,
2013-05-29 12:18:00,51.1,48.5,30.26,NNE,17,4.0,7.0,91,0.00,OVC,OVC,0.00,WeatherDisplay:10.34,2013-05-29 16:18:00,
2013-05-29 12:23:00,51.3,48.7,30.26,North,10,3.0,6.0,91,0.00,OVC,OVC,0.00,WeatherDisplay:10.34,2013-05-29 16:23:00,
2013-05-29 12:28:00,51.3,48.7,30.26,North,9,0.0,0.0,91,0.00,OVC,OVC,0.00,WeatherDisplay:10.34,2013-05-29 16:28:00,
2013-05-29 12:33:00,51.3,48.7,30.26,North,6,0.0,2.0,91,0.00,OVC,OVC,0.00,WeatherDisplay:10.34,2013-05-29 16:33:00,
2013-05-29 12:38:00,51.3,48.7,30.26,North,6,0.0,0.0,91,0.00,OVC,OVC,0.00,WeatherDisplay:10.34,2013-05-29 16:38:00,
2013-05-29 12:43:00,51.3,48.7,30.26,North,7,3.0,6.0,91,0.00,OVC,OVC,0.00,WeatherDisplay:10.34,2013-05-29 16:43:00,
2013-05-29 12:48:00,51.3,48.7,30.26,North,351,0.0,0.0,91,0.00,OVC,OVC,0.00,WeatherDisplay:10.34,2013-05-29 16:48:00,
2013-05-29 12:53:00,51.3,48.7,30.26,North,351,0.0,0.0,91,0.00,OVC,OVC,0.00,WeatherDisplay:10.34,2013-05-29 16:53:00,
2013-05-29 12:58:00,51.4,48.9,30.26,North,351,0.0,0.0,91,0.00,OVC,OVC,0.00,WeatherDisplay:10.34,2013-05-29 16:58:00,
2013-05-29 13:03:00,51.6,49.4,30.26,North,351,0.0,0.0,92,0.00,OVC,OVC,0.00,WeatherDisplay:10.34,2013-05-29 17:03:00,
2013-05-29 13:08:00,51.6,49.4,30.26,North,351,0.0,0.0,92,0.00,OVC,OVC,0.00,WeatherDisplay:10.34,2013-05-29 17:08:00,
2013-05-29 13:13:00,51.6,49.4,30.26,North,351,0.0,0.0,92,0.00,OVC,OVC,0.00,WeatherDisplay:10.34,2013-05-29 17:13:00,
2013-05-29 13:18:00,52.0,49.7,30.26,North,351,0.0,0.0,92,0.00,OVC,OVC,0.00,WeatherDisplay:10.34,2013-05-29 17:18:00,
2013-05-29 13:24:00,52.0,49.7,30.26,North,351,0.0,0.0,92,0.00,OVC,OVC,0.00,WeatherDisplay:10.34,2013-05-29 17:24:00,
2013-05-29 13:29:00,52.2,49.9,30.26,North,351,0.0,0.0,92,0.00,OVC,OVC,0.00,WeatherDisplay:10.34,2013-05-29 17:29:00,
2013-05-29 13:34:00,52.2,49.9,30.26,North,351,0.0,0.0,92,0.00,OVC,OVC,0.00,WeatherDisplay:10.34,2013-05-29 17:34:00,
2013-05-29 13:39:00,52.2,49.9,30.26,North,351,0.0,0.0,92,0.00,OVC,OVC,0.00,WeatherDisplay:10.34,2013-05-29 17:39:00,
2013-05-29 13:44:00,52.3,50.1,30.26,North,351,0.0,0.0,92,0.00,OVC,OVC,0.00,WeatherDisplay:10.34,2013-05-29 17:44:00,
2013-05-29 13:49:00,52.5,50.3,30.26,North,351,0.0,0.0,92,0.00,OVC,OVC,0.00,WeatherDisplay:10.34,2013-05-29 17:49:00,
2013-05-29 13:54:00,52.5,50.3,30.26,North,351,0.0,0.0,92,0.00,OVC,OVC,0.00,WeatherDisplay:10.34,2013-05-29 17:54:00,
2013-05-29 13:59:00,52.7,50.4,30.26,North,351,0.0,0.0,92,0.00,OVC,OVC,0.00,WeatherDisplay:10.34,2013-05-29 17:59:00,
2013-05-29 14:04:00,52.9,50.6,30.26,North,351,0.0,3.0,92,0.00,OVC,OVC,0.00,WeatherDisplay:10.34,2013-05-29 18:04:00,
2013-05-29 14:09:00,52.9,50.6,30.26,North,351,0.0,3.0,92,0.00,OVC,OVC,0.00,WeatherDisplay:10.34,2013-05-29 18:09:00,
2013-05-29 14:14:00,52.9,50.3,30.26,North,351,0.0,0.0,91,0.00,OVC,OVC,0.00,WeatherDisplay:10.34,2013-05-29 18:14:00,
2013-05-29 14:19:00,53.1,50.8,30.26,North,351,0.0,0.0,92,0.00,OVC,OVC,0.00,WeatherDisplay:10.34,2013-05-29 18:19:00,
2013-05-29 14:24:00,53.1,50.8,30.26,North,351,0.0,0.0,92,0.00,OVC,OVC,0.00,WeatherDisplay:10.34,2013-05-29 18:24:00,
2013-05-29 14:29:00,53.1,50.8,30.26,North,351,0.0,0.0,92,0.00,OVC,OVC,0.00,WeatherDisplay:10.34,2013-05-29 18:29:00,
2013-05-29 14:35:00,53.1,50.8,30.26,North,351,0.0,0.0,92,0.00,OVC,OVC,0.00,WeatherDisplay:10.34,2013-05-29 18:35:00,
2013-05-29 14:40:00,53.2,51.0,30.25,NNE,13,0.0,0.0,92,0.00,OVC,OVC,0.00,WeatherDisplay:10.34,2013-05-29 18:40:00,
2013-05-29 14:45:00,53.2,51.0,30.25,NNE,13,0.0,0.0,92,0.00,OVC,OVC,0.00,WeatherDisplay:10.34,2013-05-29 18:45:00,
2013-05-29 14:50:00,53.4,51.2,30.22,NNE,13,0.0,0.0,92,0.00,OVC,OVC,0.00,WeatherDisplay:10.34,2013-05-29 18:50:00,
2013-05-29 14:55:00,53.6,51.3,30.22,NNE,13,0.0,0.0,92,0.00,OVC,OVC,0.00,WeatherDisplay:10.34,2013-05-29 18:55:00,
2013-05-29 15:00:00,53.6,51.3,30.22,NNE,13,0.0,0.0,92,0.00,OVC,OVC,0.00,WeatherDisplay:10.34,2013-05-29 19:00:00,
2013-05-29 15:05:00,53.6,51.3,30.22,NNE,13,0.0,3.0,92,0.00,OVC,OVC,0.00,WeatherDisplay:10.34,2013-05-29 19:05:00,
2013-05-29 15:10:00,53.8,51.5,30.22,NNE,13,0.0,3.0,92,0.00,OVC,OVC,0.00,WeatherDisplay:10.34,2013-05-29 19:10:00,
2013-05-29 15:15:00,54.0,51.7,30.22,NNE,13,0.0,0.0,92,0.00,OVC,OVC,0.00,WeatherDisplay:10.34,2013-05-29 19:15:00,
2013-05-29 15:20:00,54.1,51.9,30.22,NNE,13,0.0,0.0,92,0.00,OVC,OVC,0.00,WeatherDisplay:10.34,2013-05-29 19:20:00,
2013-05-29 15:25:00,54.1,51.9,30.22,NNE,13,0.0,0.0,92,0.00,OVC,OVC,0.00,WeatherDisplay:10.34,2013-05-29 19:25:00,
2013-05-29 15:30:00,54.1,51.9,30.22,North,9,0.0,0.0,92,0.00,OVC,OVC,0.00,WeatherDisplay:10.34,2013-05-29 19:30:00,
2013-05-29 15:35:00,54.1,51.9,30.22,North,9,0.0,0.0,92,0.00,OVC,OVC,0.00,WeatherDisplay:10.34,2013-05-29 19:35:00,
2013-05-29 15:40:00,54.1,51.9,30.22,North,9,0.0,0.0,92,0.00,OVC,OVC,0.00,WeatherDisplay:10.34,2013-05-29 19:40:00,
2013-05-29 15:45:00,54.1,51.9,30.22,North,9,0.0,0.0,92,0.00,OVC,OVC,0.00,WeatherDisplay:10.34,2013-05-29 19:45:00,
2013-05-29 15:50:00,54.1,51.9,30.22,North,9,0.0,0.0,92,0.00,OVC,OVC,0.00,WeatherDisplay:10.34,2013-05-29 19:50:00,
2013-05-29 15:55:00,54.1,51.9,30.22,NNE,29,0.0,0.0,92,0.00,OVC,OVC,0.00,WeatherDisplay:10.34,2013-05-29 19:55:00,
2013-05-29 16:00:00,54.3,52.0,30.22,NNE,29,0.0,0.0,92,0.00,OVC,OVC,0.00,WeatherDisplay:10.34,2013-05-29 20:00:00,
2013-05-29 16:05:00,54.5,52.2,30.22,NNE,29,0.0,0.0,92,0.00,OVC,OVC,0.00,WeatherDisplay:10.34,2013-05-29 20:05:00,
2013-05-29 16:10:00,54.7,52.4,30.22,NNE,29,0.0,0.0,92,0.00,OVC,OVC,0.00,WeatherDisplay:10.34,2013-05-29 20:10:00,
2013-05-29 16:15:00,54.9,52.6,30.22,NNE,29,0.0,0.0,92,0.00,OVC,OVC,0.00,WeatherDisplay:10.34,2013-05-29 20:15:00,
2013-05-29 16:20:00,55.2,52.9,30.22,North,0,0.0,0.0,92,0.00,OVC,OVC,0.00,WeatherDisplay:10.34,2013-05-29 20:20:00,
2013-05-29 16:25:00,55.2,52.9,30.22,North,0,0.0,0.0,92,0.00,OVC,OVC,0.00,WeatherDisplay:10.34,2013-05-29 20:25:00,
2013-05-29 16:30:00,55.2,52.9,30.22,North,0,0.0,0.0,92,0.00,OVC,OVC,0.00,WeatherDisplay:10.34,2013-05-29 20:30:00,
2013-05-29 16:35:00,55.2,52.9,30.22,North,0,0.0,0.0,92,0.00,OVC,OVC,0.00,WeatherDisplay:10.34,2013-05-29 20:35:00,
2013-05-29 16:40:00,55.2,52.9,30.22,North,0,0.0,0.0,92,0.00,OVC,OVC,0.00,WeatherDisplay:10.34,2013-05-29 20:40:00,
2013-05-29 16:45:00,55.2,52.9,30.22,North,0,0.0,0.0,92,0.00,OVC,OVC,0.00,WeatherDisplay:10.34,2013-05-29 20:45:00,
2013-05-29 16:50:00,55.2,52.9,30.22,North,0,0.0,0.0,92,0.00,OVC,OVC,0.00,WeatherDisplay:10.34,2013-05-29 20:50:00,
2013-05-29 16:55:00,55.2,52.9,30.22,North,0,0.0,0.0,92,0.00,OVC,OVC,0.00,WeatherDisplay:10.34,2013-05-29 20:55:00,
2013-05-29 17:00:00,55.2,52.9,30.22,North,0,0.0,0.0,92,0.00,OVC,OVC,0.00,WeatherDisplay:10.34,2013-05-29 21:00:00,
2013-05-29 17:05:00,55.2,52.9,30.22,North,0,0.0,0.0,92,0.00,OVC,OVC,0.00,WeatherDisplay:10.34,2013-05-29 21:05:00,
2013-05-29 17:10:00,55.2,52.9,30.22,North,0,0.0,0.0,92,0.00,OVC,OVC,0.00,WeatherDisplay:10.34,2013-05-29 21:10:00,
2013-05-29 17:15:00,55.2,52.9,30.22,North,0,0.0,0.0,92,0.00,OVC,OVC,0.00,WeatherDisplay:10.34,2013-05-29 21:15:00,
2013-05-29 17:20:00,55.2,52.9,30.22,North,0,0.0,0.0,92,0.00,OVC,OVC,0.00,WeatherDisplay:10.34,2013-05-29 21:20:00,
2013-05-29 17:25:00,55.2,52.9,30.22,North,0,0.0,0.0,92,0.00,OVC,OVC,0.00,WeatherDisplay:10.34,2013-05-29 21:25:00,
2013-05-29 17:30:00,55.2,52.9,30.22,North,0,0.0,0.0,92,0.00,OVC,OVC,0.00,WeatherDisplay:10.34,2013-05-29 21:30:00,
2013-05-29 17:35:00,55.4,53.1,30.22,North,0,0.0,0.0,92,0.00,OVC,OVC,0.00,WeatherDisplay:10.34,2013-05-29 21:35:00,
2013-05-29 17:40:00,55.4,53.1,30.22,North,0,0.0,0.0,92,0.00,OVC,OVC,0.00,WeatherDisplay:10.34,2013-05-29 21:40:00,
2013-05-29 17:45:00,55.4,53.1,30.22,North,0,0.0,0.0,92,0.00,OVC,OVC,0.00,WeatherDisplay:10.34,2013-05-29 21:45:00,
2013-05-29 17:50:00,55.4,53.1,30.22,North,0,0.0,0.0,92,0.00,OVC,OVC,0.00,WeatherDisplay:10.34,2013-05-29 21:50:00,
2013-05-29 17:55:00,55.4,53.1,30.22,North,0,0.0,0.0,92,0.00,OVC,OVC,0.00,WeatherDisplay:10.34,2013-05-29 21:55:00,
2013-05-29 18:00:00,55.2,52.9,30.22,North,0,0.0,0.0,92,0.00,OVC,OVC,0.00,WeatherDisplay:10.34,2013-05-29 22:00:00,
2013-05-29 18:05:00,55.4,53.1,30.22,North,0,0.0,0.0,92,0.00,OVC,OVC,0.00,WeatherDisplay:10.34,2013-05-29 22:05:00,
2013-05-29 18:10:00,55.4,53.1,30.22,North,0,0.0,0.0,92,0.00,OVC,OVC,0.00,WeatherDisplay:10.34,2013-05-29 22:10:00,
2013-05-29 18:15:00,55.4,53.1,30.22,North,0,0.0,0.0,92,0.00,OVC,OVC,0.00,WeatherDisplay:10.34,2013-05-29 22:15:00,
2013-05-29 18:20:00,55.4,53.1,30.19,North,0,0.0,0.0,92,0.00,OVC,OVC,0.00,WeatherDisplay:10.34,2013-05-29 22:20:00,
2013-05-29 18:25:00,55.2,52.9,30.19,North,0,0.0,0.0,92,0.00,OVC,OVC,0.00,WeatherDisplay:10.34,2013-05-29 22:25:00,
2013-05-29 18:30:00,55.2,52.9,30.19,North,0,0.0,0.0,92,0.00,OVC,OVC,0.00,WeatherDisplay:10.34,2013-05-29 22:30:00,
2013-05-29 18:35:00,55.4,53.1,30.19,North,0,0.0,0.0,92,0.00,OVC,OVC,0.00,WeatherDisplay:10.34,2013-05-29 22:35:00,
2013-05-29 18:41:00,55.4,53.1,30.19,North,0,0.0,0.0,92,0.00,OVC,OVC,0.00,WeatherDisplay:10.34,2013-05-29 22:41:00,
2013-05-29 18:46:00,55.4,53.1,30.19,North,0,0.0,0.0,92,0.00,OVC,OVC,0.00,WeatherDisplay:10.34,2013-05-29 22:46:00,
2013-05-29 18:51:00,55.6,53.3,30.19,North,0,0.0,0.0,92,0.00,OVC,OVC,0.00,WeatherDisplay:10.34,2013-05-29 22:51:00,
2013-05-29 18:56:00,55.6,53.3,30.19,North,0,0.0,0.0,92,0.00,OVC,OVC,0.00,WeatherDisplay:10.34,2013-05-29 22:56:00,
2013-05-29 19:01:00,55.6,53.3,30.19,North,0,0.0,0.0,92,0.00,OVC,OVC,0.00,WeatherDisplay:10.34,2013-05-29 23:01:00,
2013-05-29 19:06:00,55.6,53.3,30.19,North,0,0.0,0.0,92,0.00,OVC,OVC,0.00,WeatherDisplay:10.34,2013-05-29 23:06:00,
2013-05-29 19:11:00,55.4,53.1,30.19,North,0,0.0,0.0,92,0.00,OVC,OVC,0.00,WeatherDisplay:10.34,2013-05-29 23:11:00,
2013-05-29 19:16:00,55.4,53.1,30.19,NW,320,0.0,0.0,92,0.00,OVC,OVC,0.00,WeatherDisplay:10.34,2013-05-29 23:16:00,
2013-05-29 19:21:00,55.4,53.1,30.19,NW,320,0.0,0.0,92,0.00,OVC,OVC,0.00,WeatherDisplay:10.34,2013-05-29 23:21:00,
2013-05-29 19:26:00,55.4,53.1,30.19,NW,323,0.0,0.0,92,0.00,OVC,OVC,0.00,WeatherDisplay:10.34,2013-05-29 23:26:00,
2013-05-29 19:31:00,55.4,53.1,30.19,NW,323,0.0,0.0,92,0.00,OVC,OVC,0.00,WeatherDisplay:10.34,2013-05-29 23:31:00,
2013-05-29 19:36:00,55.4,53.1,30.19,NW,323,0.0,0.0,92,0.00,OVC,OVC,0.00,WeatherDisplay:10.34,2013-05-29 23:36:00,
2013-05-29 19:41:00,55.4,53.1,30.19,NW,323,0.0,0.0,92,0.00,OVC,OVC,0.00,WeatherDisplay:10.34,2013-05-29 23:41:00,
2013-05-29 19:46:00,55.4,53.1,30.19,NW,323,0.0,0.0,92,0.00,OVC,OVC,0.00,WeatherDisplay:10.34,2013-05-29 23:46:00,
2013-05-29 19:51:00,55.4,53.1,30.19,NW,323,0.0,0.0,92,0.00,OVC,OVC,0.00,WeatherDisplay:10.34,2013-05-29 23:51:00,
2013-05-29 19:56:00,55.4,53.1,30.19,NW,323,0.0,0.0,92,0.00,OVC,OVC,0.00,WeatherDisplay:10.34,2013-05-29 23:56:00,
2013-05-29 20:01:00,55.4,53.1,30.19,NW,323,0.0,0.0,92,0.00,OVC,OVC,0.00,WeatherDisplay:10.34,2013-05-30 00:01:00,
2013-05-29 20:06:00,55.4,53.1,30.19,NW,323,0.0,0.0,92,0.00,OVC,OVC,0.00,WeatherDisplay:10.34,2013-05-30 00:06:00,
2013-05-29 20:11:00,55.4,53.1,30.19,NW,323,0.0,0.0,92,0.00,OVC,OVC,0.00,WeatherDisplay:10.34,2013-05-30 00:11:00,
2013-05-29 20:16:00,55.2,52.9,30.19,NW,323,0.0,0.0,92,0.00,OVC,OVC,0.00,WeatherDisplay:10.34,2013-05-30 00:16:00,
2013-05-29 20:21:00,55.2,52.9,30.19,NW,323,0.0,0.0,92,0.00,OVC,OVC,0.00,WeatherDisplay:10.34,2013-05-30 00:21:00,
2013-05-29 20:26:00,55.2,52.9,30.19,NW,323,0.0,0.0,92,0.00,OVC,OVC,0.00,WeatherDisplay:10.34,2013-05-30 00:26:00,
2013-05-29 20:31:00,55.2,52.9,30.19,NW,324,0.0,0.0,92,0.00,OVC,OVC,0.00,WeatherDisplay:10.34,2013-05-30 00:31:00,
2013-05-29 20:36:00,55.2,52.9,30.19,NW,323,0.0,0.0,92,0.00,OVC,OVC,0.00,WeatherDisplay:10.34,2013-05-30 00:36:00,
2013-05-29 20:41:00,55.2,52.9,30.19,NW,324,0.0,0.0,92,0.00,OVC,OVC,0.00,WeatherDisplay:10.34,2013-05-30 00:41:00,
2013-05-29 20:46:00,55.2,52.9,30.19,NW,323,0.0,0.0,92,0.00,OVC,OVC,0.00,WeatherDisplay:10.34,2013-05-30 00:46:00,
2013-05-29 20:51:00,55.2,52.9,30.19,NW,323,0.0,0.0,92,0.00,OVC,OVC,0.00,WeatherDisplay:10.34,2013-05-30 00:51:00,
2013-05-29 20:56:00,55.2,52.9,30.19,NW,323,0.0,0.0,92,0.00,OVC,OVC,0.00,WeatherDisplay:10.34,2013-05-30 00:56:00,
2013-05-29 21:01:00,55.4,53.1,30.19,NW,324,0.0,0.0,92,0.00,OVC,OVC,0.00,WeatherDisplay:10.34,2013-05-30 01:01:00,
2013-05-29 21:06:00,55.2,52.9,30.19,NW,324,0.0,0.0,92,0.00,OVC,OVC,0.00,WeatherDisplay:10.34,2013-05-30 01:06:00,
2013-05-29 21:11:00,55.4,53.1,30.19,NW,322,0.0,5.0,92,0.00,OVC,OVC,0.00,WeatherDisplay:10.34,2013-05-30 01:11:00,
2013-05-29 21:16:00,55.6,53.3,30.19,NW,322,0.0,3.0,92,0.00,OVC,OVC,0.00,WeatherDisplay:10.34,2013-05-30 01:16:00,
2013-05-29 21:21:00,55.6,53.3,30.19,NW,322,0.0,0.0,92,0.00,OVC,OVC,0.00,WeatherDisplay:10.34,2013-05-30 01:21:00,
2013-05-29 21:26:00,55.6,53.3,30.19,NW,322,0.0,0.0,92,0.00,OVC,OVC,0.00,WeatherDisplay:10.34,2013-05-30 01:26:00,
2013-05-29 21:31:00,55.6,53.3,30.19,NW,322,3.0,6.0,92,0.00,OVC,OVC,0.00,WeatherDisplay:10.34,2013-05-30 01:31:00,
2013-05-29 21:36:00,55.6,53.6,30.16,NW,322,0.0,0.0,93,0.00,OVC,OVC,0.00,WeatherDisplay:10.34,2013-05-30 01:36:00,
2013-05-29 21:41:00,55.6,53.6,30.16,NW,322,0.0,0.0,93,0.00,OVC,OVC,0.00,WeatherDisplay:10.34,2013-05-30 01:41:00,
2013-05-29 21:46:00,55.6,53.6,30.16,NW,322,0.0,0.0,93,0.00,OVC,OVC,0.00,WeatherDisplay:10.34,2013-05-30 01:46:00,
2013-05-29 21:51:00,55.6,53.6,30.16,NW,322,0.0,0.0,93,0.00,OVC,OVC,0.00,WeatherDisplay:10.34,2013-05-30 01:51:00,
2013-05-29 21:56:00,55.4,53.1,30.16,NW,322,0.0,0.0,92,0.00,OVC,OVC,0.00,WeatherDisplay:10.34,2013-05-30 01:56:00,
2013-05-29 22:01:00,55.4,53.4,30.16,NW,322,0.0,0.0,93,0.00,OVC,OVC,0.00,WeatherDisplay:10.34,2013-05-30 02:01:00,
2013-05-29 22:06:00,55.4,53.4,30.19,NW,322,0.0,0.0,93,0.00,OVC,OVC,0.00,WeatherDisplay:10.34,2013-05-30 02:06:00,
2013-05-29 22:11:00,55.4,53.4,30.19,NW,322,0.0,0.0,93,0.00,OVC,OVC,0.00,WeatherDisplay:10.34,2013-05-30 02:11:00,
2013-05-29 22:16:00,55.2,53.2,30.19,NW,322,0.0,0.0,93,0.00,OVC,OVC,0.00,WeatherDisplay:10.34,2013-05-30 02:16:00,
2013-05-29 22:21:00,55.2,53.2,30.16,NW,322,0.0,0.0,93,0.00,OVC,OVC,0.00,WeatherDisplay:10.34,2013-05-30 02:21:00,
2013-05-29 22:26:00,55.2,53.2,30.16,NW,322,0.0,0.0,93,0.00,OVC,OVC,0.00,WeatherDisplay:10.34,2013-05-30 02:26:00,
2013-05-29 22:31:00,55.2,53.2,30.16,NW,322,0.0,0.0,93,0.00,OVC,OVC,0.00,WeatherDisplay:10.34,2013-05-30 02:31:00,
2013-05-29 22:36:00,55.4,53.4,30.16,NW,322,0.0,0.0,93,0.00,OVC,OVC,0.00,WeatherDisplay:10.34,2013-05-30 02:36:00,
2013-05-29 22:41:00,55.4,53.4,30.16,NW,322,0.0,0.0,93,0.00,OVC,OVC,0.00,WeatherDisplay:10.34,2013-05-30 02:41:00,
2013-05-29 22:46:00,55.4,53.4,30.16,NW,322,0.0,2.0,93,0.00,OVC,OVC,0.00,WeatherDisplay:10.34,2013-05-30 02:46:00,
2013-05-29 22:51:00,55.4,53.4,30.16,NW,322,0.0,0.0,93,0.00,OVC,OVC,0.00,WeatherDisplay:10.34,2013-05-30 02:51:00,
2013-05-29 22:56:00,55.6,53.6,30.16,West,268,0.0,2.0,93,0.00,OVC,OVC,0.00,WeatherDisplay:10.34,2013-05-30 02:56:00,
2013-05-29 23:01:00,55.6,53.6,30.16,West,278,0.0,0.0,93,0.00,OVC,OVC,0.00,WeatherDisplay:10.34,2013-05-30 03:01:00,
2013-05-29 23:06:00,55.6,53.6,30.16,West,278,0.0,0.0,93,0.00,OVC,OVC,0.00,WeatherDisplay:10.34,2013-05-30 03:06:00,
2013-05-29 23:11:00,55.6,53.6,30.16,West,278,0.0,0.0,93,0.00,OVC,OVC,0.00,WeatherDisplay:10.34,2013-05-30 03:11:00,
2013-05-29 23:16:00,55.8,53.8,30.16,West,278,0.0,0.0,93,0.00,OVC,OVC,0.00,WeatherDisplay:10.34,2013-05-30 03:16:00,
2013-05-29 23:21:00,55.6,53.6,30.19,West,278,0.0,0.0,93,0.00,OVC,OVC,0.00,WeatherDisplay:10.34,2013-05-30 03:21:00,
2013-05-29 23:26:00,55.4,53.4,30.19,West,278,0.0,0.0,93,0.00,OVC,OVC,0.00,WeatherDisplay:10.34,2013-05-30 03:26:00,
2013-05-29 23:31:00,55.4,53.4,30.19,West,278,0.0,0.0,93,0.00,OVC,OVC,0.00,WeatherDisplay:10.34,2013-05-30 03:31:00,
2013-05-29 23:36:00,55.4,53.4,30.16,West,278,0.0,0.0,93,0.00,OVC,OVC,0.00,WeatherDisplay:10.34,2013-05-30 03:36:00,
2013-05-29 23:41:00,55.4,53.4,30.16,West,278,0.0,0.0,93,0.00,OVC,OVC,0.00,WeatherDisplay:10.34,2013-05-30 03:41:00,
2013-05-29 23:46:00,55.6,53.6,30.16,West,275,0.0,3.0,93,0.00,OVC,OVC,0.00,WeatherDisplay:10.34,2013-05-30 03:46:00,
2013-05-29 23:51:00,55.6,53.9,30.16,West,274,0.0,6.0,94,0.00,OVC,OVC,0.00,WeatherDisplay:10.34,2013-05-30 03:51:00,
2013-05-29 23:56:00,55.8,54.1,30.16,West,275,0.0,3.0,94,0.00,OVC,OVC,0.00,WeatherDisplay:10.34,2013-05-30 03:56:00,